Theta_e
328 328 329 329 332 335 335 335 335 333 333 335 335 336 335 333 333 332 331 330 327 326 326 326 327 331 333 333 332 332 332 330 328 328 329 331 330 330 330 330 330 328 328 328 329 331 332 331 330 331 332 331 332 332 331 330 329 328 327 326 325 325 324 324 325 326 328 329 329 329 329 329 330 328 324 322 321 321 321 322 323 324 326 327 327
329 330 328 329 331 332 332 333 334 333 333 333 333 334 332 331 330 331 330 327 324 323 325 324 326 329 331 332 332 330 329 328 326 327 328 330 330 330 330 329 329 328 328 329 328 329 330 331 331 331 331 331 332 331 331 330 329 328 327 325 324 325 326 326 328 329 329 330 328 329 330 330 329 327 325 323 321 320 320 321 321 322 325 327 329
332 332 329 328 330 330 331 331 333 334 332 332 332 332 330 329 328 329 329 325 323 324 325 325 325 328 329 329 329 327 326 326 325 326 327 327 328 328 328 327 326 326 327 327 327 328 330 330 330 329 329 330 331 331 331 330 329 329 328 326 325 327 327 328 329 329 328 328 327 328 329 330 330 327 326 324 321 320 320 320 320 321 323 325 327
333 332 329 328 328 330 330 330 333 333 332 331 331 330 329 329 328 328 329 326 324 325 324 323 324 327 328 327 326 324 324 323 322 323 323 323 324 325 325 325 325 325 325 326 327 327 327 327 328 329 329 329 330 330 328 327 328 328 328 328 327 328 328 327 328 328 327 326 327 327 326 329 332 328 325 324 322 320 318 318 319 319 320 321 322
331 332 331 329 328 329 329 329 332 333 333 332 331 330 329 329 326 328 329 326 324 326 323 322 325 328 327 324 324 323 322 322 321 320 320 321 320 320 322 323 323 324 325 326 326 326 325 324 326 328 328 329 329 329 329 327 327 327 328 328 327 327 327 327 327 327 326 326 326 327 326 330 331 326 324 324 323 322 320 319 320 320 320 320 321
330 331 330 329 327 328 329 329 329 332 333 332 331 330 329 328 327 328 329 324 324 326 323 322 326 327 326 323 322 321 320 321 320 320 320 320 319 319 320 321 321 321 322 323 323 324 325 325 325 326 327 327 328 328 329 328 327 326 326 326 326 327 326 327 327 326 326 326 325 326 327 328 328 326 326 325 324 323 323 322 321 322 323 321 320
330 330 329 329 327 327 328 328 328 330 332 332 331 330 330 330 328 329 328 322 323 326 323 322 326 326 325 322 321 319 318 319 319 319 319 319 319 319 319 319 319 320 320 320 321 324 325 325 324 325 327 326 326 327 327 327 327 326 326 326 326 328 327 327 328 326 325 325 325 325 326 327 326 326 327 328 328 327 324 320 317 318 320 317 317
329 330 330 329 326 325 327 327 327 328 331 333 332 330 330 330 329 331 328 322 323 325 323 323 325 324 323 321 320 319 317 317 318 318 318 319 319 319 318 318 319 319 319 320 321 321 322 322 322 323 326 326 324 325 325 326 327 326 327 326 327 328 328 328 327 326 326 326 326 325 327 328 325 325 326 326 327 329 327 321 315 313 313 314 315
328 329 329 326 324 324 325 327 327 328 330 332 332 330 330 330 330 331 327 321 323 325 324 324 324 323 322 320 320 318 316 316 317 317 317 318 319 318 317 317 317 318 318 318 319 320 319 320 320 322 323 323 323 323 323 324 325 324 326 326 327 328 327 328 328 327 327 327 326 325 324 323 320 320 323 324 324 326 328 324 316 311 311 313 315
326 327 326 323 323 323 323 325 327 328 329 331 333 332 331 330 330 331 326 320 323 325 324 324 323 322 321 321 319 317 317 318 318 317 317 318 319 318 316 315 316 317 318 318 318 319 319 319 321 321 321 321 321 322 322 323 322 323 325 326 325 326 326 327 327 327 327 326 325 324 321 318 315 314 315 318 318 318 321 320 313 311 313 313 314
324 326 324 320 320 321 321 323 327 328 328 331 333 332 331 330 330 330 324 318 322 325 325 324 323 322 322 320 318 317 318 318 317 317 318 318 318 318 316 315 315 315 316 317 317 317 317 318 320 320 320 320 320 320 320 320 320 322 323 323 321 321 322 324 325 325 325 323 321 320 317 314 313 311 310 311 311 311 315 314 310 309 311 311 313
323 326 326 323 321 321 320 321 325 328 329 330 332 332 331 330 328 328 324 321 322 322 323 323 321 322 321 319 317 317 318 317 316 317 319 319 318 317 316 315 315 313 313 313 313 312 312 312 315 317 318 319 318 318 318 317 318 319 319 318 316 316 317 318 320 320 319 317 315 314 312 311 310 310 310 310 310 310 310 310 308 309 311 309 311
325 326 327 327 325 321 319 320 323 327 329 329 332 332 330 327 324 323 322 321 321 321 321 321 321 321 320 318 317 318 317 316 315 316 318 318 317 317 315 314 314 314 313 312 312 311 310 308 309 311 312 313 313 314 314 313 313 315 316 314 312 311 312 312 313 313 313 312 311 310 309 309 309 309 310 309 309 308 308 309 308 308 310 309 309
325 325 325 326 324 319 319 320 321 324 328 329 329 330 327 325 322 321 320 320 322 322 320 320 320 320 318 317 318 318 317 317 315 314 316 317 317 315 313 313 313 313 313 313 312 310 308 307 308 309 309 309 308 306 305 304 305 307 308 307 306 306 306 307 308 309 309 308 307 307 307 307 307 307 307 308 307 307 308 308 308 307 307 307 307
326 327 328 326 321 317 319 321 321 322 326 327 327 329 330 328 325 322 321 320 321 321 319 319 319 319 318 318 319 318 317 318 315 313 312 314 315 313 311 311 311 311 311 311 311 309 309 309 310 309 309 308 305 302 302 301 302 302 303 303 302 302 303 304 306 307 306 304 302 302 302 303 302 302 302 304 305 307 307 307 307 309 309 308 306
329 330 331 326 319 318 319 320 320 322 323 326 327 328 329 327 323 321 320 321 320 319 319 319 318 318 319 319 319 316 315 317 317 314 311 311 312 312 310 309 309 309 309 309 309 308 309 311 310 310 310 309 307 305 304 303 303 303 303 303 302 301 302 303 303 304 304 302 302 302 301 301 301 300 300 302 305 306 306 306 306 308 309 311 311
330 334 334 328 320 320 322 321 320 321 321 324 326 326 327 325 322 320 320 321 321 319 319 319 318 318 319 320 319 317 315 317 317 315 313 312 312 311 309 309 309 309 307 307 308 308 308 310 310 311 312 311 311 310 307 304 303 304 305 305 303 303 302 302 302 303 304 304 305 304 303 304 304 304 304 305 305 306 305 305 306 306 307 310 313
330 332 331 324 318 319 324 324 323 322 321 323 324 325 326 325 324 321 320 320 321 320 320 318 315 316 319 319 319 318 318 318 317 316 314 313 313 312 310 309 309 309 308 307 307 307 307 308 309 310 312 312 311 311 309 306 304 306 308 307 307 306 304 303 303 303 303 304 306 305 303 304 305 306 306 306 306 306 306 306 306 307 307 308 309
325 325 324 321 317 318 324 326 326 324 322 322 324 325 325 325 325 322 320 321 320 320 320 316 312 314 317 318 317 318 319 318 318 317 315 314 314 313 311 310 309 309 309 310 309 307 306 307 308 310 312 312 311 311 310 307 306 307 308 308 308 308 306 305 305 304 304 304 304 305 303 303 304 305 306 306 305 305 305 305 306 306 307 307 307
324 322 322 320 314 316 322 324 325 325 323 322 323 324 325 325 324 322 320 320 320 319 319 315 313 314 316 316 316 317 318 319 318 317 316 315 314 315 313 311 310 310 310 310 311 310 307 306 306 309 311 311 311 310 310 309 309 309 309 309 309 308 307 307 307 307 306 305 304 305 305 305 304 304 304 305 305 304 305 305 305 306 306 306 306
324 321 321 318 312 314 320 322 323 324 323 323 323 324 324 324 323 322 321 320 319 318 318 316 314 314 314 315 316 317 318 319 318 317 317 315 314 315 315 313 312 311 311 311 312 312 310 307 306 307 309 310 310 310 310 310 310 310 310 310 309 309 308 309 309 308 307 306 305 305 306 306 305 304 303 303 304 304 305 305 305 305 305 305 305
322 321 320 316 311 313 317 320 321 322 322 323 323 324 324 323 323 322 322 321 319 319 318 316 315 314 313 315 317 317 317 318 318 317 317 317 316 315 316 315 314 312 312 312 312 313 312 310 307 306 307 308 309 310 310 310 309 310 311 310 310 310 309 309 309 310 309 308 307 306 305 305 305 305 305 304 304 304 305 305 305 305 305 304 304
321 319 316 311 310 312 314 317 319 321 322 322 322 323 323 324 323 323 322 321 320 319 318 317 315 314 314 315 317 317 317 318 318 317 317 318 317 317 316 316 315 313 313 313 313 313 313 312 310 309 308 308 309 310 311 310 309 310 311 311 311 310 310 309 309 309 310 309 308 308 306 305 305 305 305 305 305 304 305 305 305 305 305 304 304
319 319 314 310 310 311 311 312 314 316 319 320 322 322 323 323 323 323 323 322 321 320 318 317 316 315 316 317 318 318 318 318 319 318 317 317 317 317 317 316 315 314 314 314 314 314 314 314 313 312 312 311 311 311 311 312 311 310 310 311 311 311 310 310 310 310 310 309 309 309 308 307 306 306 306 306 306 305 304 305 305 305 305 304 303
320 320 318 315 314 312 310 310 310 312 314 316 319 321 321 322 323 323 323 323 322 321 320 319 317 317 318 318 319 319 318 317 318 318 317 317 318 318 317 317 316 315 314 314 314 315 315 314 314 314 314 315 315 314 314 314 313 312 311 311 311 311 311 311 310 311 310 310 309 309 308 308 307 306 306 306 306 306 305 305 305 305 305 304 302
319 319 320 318 315 310 308 309 309 310 312 313 315 317 318 320 321 322 322 323 323 322 321 319 318 319 319 319 320 320 320 320 319 319 318 318 318 318 318 318 316 315 315 315 315 315 315 315 315 315 315 316 316 316 316 316 315 314 313 313 312 312 312 312 311 312 312 311 310 309 309 309 308 307 307 307 306 306 306 305 305 305 304 304 302
317 318 318 318 316 310 306 307 308 308 310 313 314 315 315 317 318 320 321 321 322 322 321 320 319 319 319 319 320 320 320 320 319 319 319 319 319 318 319 319 318 316 316 316 316 316 315 315 315 315 316 316 317 317 317 317 316 316 316 315 314 313 313 312 312 312 312 312 312 311 310 309 308 308 308 307 306 306 306 305 305 304 304 303 301
315 317 318 317 317 312 305 305 306 307 308 311 313 315 315 316 316 317 318 319 320 320 320 319 319 319 319 319 320 319 319 318 319 319 319 319 319 319 319 319 318 317 317 317 316 316 316 316 316 316 316 316 317 317 317 317 317 317 317 316 316 315 314 313 312 312 312 312 312 312 311 309 309 308 308 307 307 306 306 305 305 304 304 303 301
313 314 314 314 314 311 304 304 305 305 306 308 310 312 315 316 317 317 317 317 318 319 319 319 319 319 319 319 319 319 319 318 319 319 319 319 318 319 318 318 317 316 316 315 315 316 317 317 317 318 317 317 318 318 318 318 318 317 317 317 317 317 316 316 315 315 314 313 312 312 312 311 309 309 308 308 307 306 306 305 304 304 303 302 301
309 308 308 308 308 305 302 303 304 304 305 305 306 308 310 312 314 316 317 317 317 318 318 319 319 319 319 320 320 320 320 319 319 319 318 318 318 318 317 317 317 316 315 315 315 316 317 316 317 318 318 318 317 317 317 316 316 315 315 315 316 316 316 316 316 316 315 314 313 313 312 311 310 309 308 308 307 306 306 305 304 303 302 302 302
306 306 306 306 305 304 302 302 303 303 304 304 304 306 306 307 309 310 313 315 316 317 318 318 318 318 319 319 319 320 321 320 320 320 319 318 317 317 316 317 317 317 316 316 317 317 317 317 318 318 318 318 317 317 317 316 317 317 317 317 317 317 317 317 317 316 316 316 315 314 313 312 310 309 308 308 307 306 305 304 303 302 302 302 302
307 306 305 306 306 305 304 303 303 303 304 304 304 305 305 306 307 306 308 310 312 314 315 316 316 316 318 318 319 320 321 320 320 319 318 317 317 316 317 318 318 318 318 318 317 317 317 317 317 318 318 317 317 316 317 317 317 316 316 316 317 318 318 318 318 318 318 317 316 314 313 311 310 309 308 307 305 305 304 303 303 302 302 302 302
307 307 306 305 305 305 305 305 304 304 304 304 304 304 305 305 306 306 306 307 307 308 310 313 315 316 316 318 319 319 319 319 320 319 318 317 316 316 318 319 319 318 318 317 317 317 316 315 316 317 317 317 316 316 316 314 312 311 309 309 311 313 316 318 318 318 318 317 316 314 312 310 308 308 307 305 305 305 304 303 302 302 301 301 301
306 307 306 304 304 305 305 305 305 305 305 305 304 304 304 305 305 306 305 306 306 306 307 309 312 313 314 315 316 317 317 318 318 318 318 318 317 317 319 318 317 317 317 317 316 317 316 316 316 317 317 316 314 314 313 311 311 309 307 306 307 311 314 317 318 317 316 315 315 313 312 309 307 306 305 305 306 306 304 303 302 301 301 301 301
305 305 304 304 305 306 305 305 305 305 304 304 304 304 304 305 305 305 305 305 306 306 306 307 308 310 311 312 313 314 315 316 316 316 317 318 318 318 317 316 316 316 316 316 317 317 317 316 316 315 314 314 313 312 312 312 311 309 307 306 309 312 315 316 316 315 314 313 312 312 311 308 306 305 305 305 305 305 303 302 302 301 301 301 301
303 301 301 301 303 305 305 304 304 304 303 303 304 304 304 305 304 304 304 304 305 305 305 306 307 309 310 311 312 312 313 314 313 313 313 314 313 313 313 313 314 313 314 314 314 314 314 313 313 313 313 312 312 312 312 311 311 310 308 308 310 312 313 314 313 312 312 311 311 311 310 307 306 305 305 304 304 304 303 302 301 301 301 301 301
298 298 298 298 299 301 302 301 302 303 303 302 303 303 304 305 304 304 304 304 304 304 305 305 306 307 309 310 310 310 309 309 308 308 309 309 309 309 309 310 310 311 311 311 311 311 311 311 311 311 311 312 312 312 312 311 311 310 308 308 310 310 311 311 311 311 310 310 310 310 309 307 306 305 305 304 304 304 303 301 301 301 301 301 300
296 296 297 297 297 298 299 298 300 302 302 301 302 302 303 304 304 303 304 304 304 304 304 304 304 305 307 308 309 309 309 308 307 306 307 308 308 308 308 307 308 308 308 308 309 309 310 311 310 310 311 312 312 312 312 311 311 310 309 308 309 309 309 309 308 308 307 306 306 306 305 305 305 305 304 303 303 303 302 302 301 301 300 299 298
296 296 297 297 297 298 298 298 299 300 300 300 301 301 302 303 303 303 303 304 304 303 304 304 304 304 305 306 308 309 309 309 308 306 307 308 308 307 307 306 307 307 307 307 307 307 309 311 311 311 312 313 313 313 312 311 310 310 309 308 308 308 307 307 306 305 305 304 303 303 303 303 303 302 302 301 301 301 301 300 300 299 299 298 297
296 297 297 297 297 297 297 297 298 298 299 299 299 300 301 302 302 302 303 304 304 303 303 304 304 304 304 305 306 307 308 308 308 307 307 307 307 307 307 306 306 306 306 306 305 305 307 309 311 312 313 313 313 312 311 310 309 309 308 308 307 306 306 305 305 304 304 303 302 302 301 301 301 301 300 300 300 300 299 299 298 298 297 296 296
296 297 297 297 297 297 297 297 297 298 298 298 299 299 300 300 300 300 302 303 303 304 303 303 304 304 304 304 304 305 306 307 307 308 308 308 308 307 307 307 307 306 305 304 304 304 305 307 309 311 312 312 311 311 310 309 308 308 308 307 306 305 305 304 304 303 303 302 301 301 300 299 299 299 299 298 298 298 297 297 296 296 295 295 294
296 297 297 297 297 297 297 297 297 298 298 298 298 298 299 299 299 300 301 301 302 303 303 303 303 303 304 304 304 304 305 305 306 306 306 307 307 307 308 308 307 307 306 305 305 305 305 305 307 309 310 310 310 309 308 308 307 307 306 306 305 304 303 303 302 302 301 300 299 299 298 297 297 297 297 297 297 296 296 295 294 294 293 293 293
296 296 296 296 297 297 297 297 297 298 298 298 298 298 298 298 299 300 300 301 301 302 302 302 302 303 303 303 304 304 304 304 304 304 304 304 305 305 307 307 306 307 306 306 306 305 305 305 306 307 309 309 309 308 308 307 307 306 305 304 303 303 302 301 300 299 299 298 297 297 296 296 296 296 296 296 295 295 294 293 293 293 293 293 292
296 296 296 296 296 296 296 297 297 297 298 298 297 298 298 298 299 299 300 301 301 301 301 301 301 302 302 303 303 304 304 304 304 304 304 304 303 303 303 304 304 305 306 306 306 305 305 305 306 306 308 308 308 308 307 306 305 304 303 302 301 300 300 299 298 298 297 297 296 296 296 296 296 296 295 295 294 293 293 293 292 292 292 292 292
295 295 295 295 296 296 296 296 296 297 297 297 297 297 297 298 298 298 299 299 300 300 301 301 301 301 302 303 303 303 304 304 304 304 304 304 303 303 303 302 303 303 304 305 305 305 305 305 305 306 306 307 306 306 305 304 303 302 301 300 298 297 296 296 296 296 295 295 296 295 295 295 295 294 294 293 293 293 293 292 292 292 291 291 291
294 293 294 294 295 295 295 295 296 296 296 297 297 297 298 298 299 299 299 299 299 300 300 301 301 302 302 302 302 302 303 304 304 305 304 304 303 303 303 302 302 302 302 304 305 305 304 304 305 305 305 305 304 303 302 301 300 299 299 297 296 295 295 294 294 294 294 295 295 295 294 294 293 293 293 292 292 292 292 291 291 291 291 291 290
292 292 292 292 293 293 294 294 295 295 295 296 296 296 297 297 298 298 299 299 299 300 300 300 300 301 301 302 301 301 302 303 304 304 304 303 303 303 303 303 302 302 302 302 304 304 304 304 304 303 303 303 302 301 300 299 298 297 296 295 294 294 294 294 294 294 295 295 294 293 293 292 292 292 292 292 291 291 291 291 291 290 290 290 290
291 291 291 291 291 291 292 292 293 293 294 294 294 295 295 296 296 297 298 299 299 299 300 300 300 300 301 301 301 302 302 302 303 303 302 303 303 303 303 302 302 302 302 302 302 303 303 303 303 303 303 303 302 300 299 297 297 296 295 294 294 294 294 295 295 295 294 294 293 292 292 292 292 292 291 291 291 290 290 290 290 290 290 290 290
290 290 290 290 290 290 290 291 291 291 291 292 292 293 293 294 295 296 297 298 298 299 299 300 300 299 300 300 301 302 302 301 302 302 302 302 302 302 302 302 302 302 301 301 301 302 302 303 304 304 304 303 302 301 299 297 296 295 294 294 294 294 295 295 295 293 293 292 292 292 292 292 291 291 291 290 290 290 290 290 290 290 290 289 289
290 290 290 290 290 290 290 290 290 290 290 291 291 292 293 294 295 296 297 297 298 299 299 300 300 300 299 299 300 301 301 301 301 301 301 301 302 302 302 302 301 301 301 302 303 303 304 305 305 305 304 303 303 302 299 296 294 293 293 294 295 295 295 294 293 292 292 292 292 292 291 291 291 290 290 290 290 290 290 290 289 289 289 288 288
290 289 289 289 289 290 290 290 290 290 290 291 291 292 293 294 294 295 296 296 297 298 298 299 299 299 300 300 300 300 300 300 300 300 300 300 301 301 301 301 301 301 301 302 304 305 306 306 305 305 304 303 302 300 298 295 293 292 293 295 295 294 293 292 292 292 292 292 291 291 291 290 290 290 290 290 290 289 289 289 288 288 287 287 287
Wind_Speed
8 11 17 22 25 27 28 29 29 26 27 31 32 33 32 29 26 23 19 16 15 15 15 15 16 18 17 16 14 12 11 8 6 4 5 7 6 6 6 6 6 7 9 10 9 7 6 8 10 9 9 8 8 8 10 11 12 12 11 11 11 9 8 8 7 6 5 3 2 2 4 5 6 4 4 4 2 2 4 5 5 5 6 6 7
5 8 10 16 21 24 26 27 28 26 26 32 36 35 32 28 25 23 19 16 15 15 16 14 15 19 18 17 16 15 12 8 6 5 6 8 8 7 7 6 6 7 8 8 7 5 5 6 6 5 5 5 6 7 8 10 11 12 12 11 10 9 9 9 9 6 5 4 2 0 3 5 6 5 5 5 5 4 3 3 3 4 4 3 3
6 7 8 14 18 21 26 27 29 30 28 31 34 33 31 28 26 23 19 17 17 17 15 14 15 17 17 18 19 18 16 12 11 9 9 9 8 7 7 7 7 7 8 7 6 5 5 5 5 3 3 5 6 7 7 7 7 8 10 12 11 9 9 9 10 8 6 5 3 1 1 1 2 3 3 3 4 5 4 4 4 3 4 3 2
9 9 7 10 15 19 25 28 30 32 30 30 32 33 31 29 26 23 20 18 19 18 15 15 17 18 18 19 18 19 19 18 17 15 13 12 10 7 6 6 6 6 7 6 6 5 5 5 4 3 2 4 6 6 6 5 5 7 9 11 11 10 10 9 9 9 7 5 2 1 1 2 1 2 3 2 4 6 6 6 6 4 3 4 4
12 11 8 8 13 19 23 26 28 29 29 30 32 33 32 30 27 24 22 20 21 20 17 16 19 21 21 20 18 19 19 18 18 16 14 12 10 8 8 7 6 6 6 6 7 6 6 5 3 3 2 2 3 3 3 3 4 6 7 9 9 9 8 7 8 7 6 5 3 3 1 1 1 2 2 2 4 6 6 7 7 6 4 4 4
10 11 11 10 12 15 16 19 22 23 25 29 32 32 31 29 27 25 23 22 23 22 18 18 22 24 24 22 20 19 17 15 15 15 14 12 10 10 10 9 8 7 7 8 8 8 8 6 4 3 2 1 1 1 1 2 3 4 6 7 7 6 6 6 6 5 7 6 3 7 4 2 2 1 0 1 3 6 7 8 7 7 6 6 7
8 9 8 8 10 11 12 16 19 20 22 26 29 29 29 29 28 27 25 24 25 23 20 20 24 26 25 23 20 19 17 14 14 14 14 14 13 12 10 9 9 9 9 9 9 10 9 7 5 4 3 3 3 3 3 3 3 3 4 6 5 4 5 5 6 6 7 5 3 5 4 5 3 2 3 0 1 3 6 8 9 9 8 9 10
9 9 7 6 8 11 14 16 16 17 20 25 28 29 29 30 29 28 26 27 27 25 21 21 25 27 25 22 19 17 16 16 15 14 13 14 13 12 10 10 10 9 9 10 11 11 10 9 6 5 5 5 5 6 6 6 6 4 4 4 5 5 4 4 7 8 7 4 4 3 4 5 5 4 4 2 2 0 4 5 8 12 10 11 13
8 8 6 3 5 11 14 14 13 14 18 22 26 28 29 30 31 30 29 30 29 27 24 23 25 26 23 20 18 17 16 17 16 14 13 13 14 14 13 12 11 10 10 12 13 13 12 11 9 8 8 8 8 8 9 8 7 5 4 3 3 4 3 3 5 6 6 6 7 7 7 8 8 8 7 5 4 2 2 2 7 13 12 14 15
6 5 3 3 5 9 10 13 13 13 15 18 22 26 30 32 33 31 30 31 31 28 25 25 26 26 23 20 19 19 20 19 17 16 15 15 15 15 14 13 13 13 14 15 15 15 14 12 11 12 12 12 12 11 11 10 8 7 6 6 6 6 6 6 5 5 7 7 7 8 9 8 7 8 8 7 5 3 1 1 5 8 8 11 16
6 4 5 5 6 7 7 11 14 13 14 17 19 23 28 31 33 34 33 34 34 30 27 27 27 25 22 20 21 22 22 21 20 19 17 17 16 15 13 13 13 15 17 17 16 15 14 13 12 13 13 13 13 12 11 10 9 9 9 9 10 10 10 10 10 10 10 10 9 9 9 8 7 7 7 8 6 5 3 2 5 7 5 5 11
5 5 6 6 5 6 7 10 13 14 16 19 22 25 29 31 33 30 22 18 19 22 25 27 26 24 22 21 22 23 23 22 21 21 20 18 17 15 14 13 14 15 16 15 14 12 11 12 12 13 12 11 11 11 10 10 10 10 11 11 12 12 11 11 12 12 11 11 11 9 9 8 8 9 8 8 9 7 6 4 5 7 4 4 7
6 5 6 5 5 7 10 12 15 16 19 21 23 22 19 13 8 11 14 11 11 16 22 27 26 23 22 22 23 23 21 21 21 21 21 19 18 17 15 15 15 16 15 14 13 11 10 12 13 13 12 12 12 11 10 10 10 10 11 10 10 10 9 9 10 10 9 9 9 8 7 7 8 8 7 7 8 8 9 7 5 5 2 4 7
5 5 6 6 6 8 10 13 15 17 20 20 17 15 10 1 8 9 11 17 20 21 25 27 26 24 23 23 24 23 19 19 20 19 20 20 19 18 17 17 17 17 16 15 13 12 12 14 14 14 13 13 13 13 13 12 12 12 11 10 9 8 8 8 9 9 8 8 7 6 7 7 7 6 5 6 7 8 10 9 7 4 2 4 7
5 4 5 4 6 9 11 14 16 18 18 16 15 18 20 20 17 16 19 19 18 19 19 17 16 19 21 22 25 20 13 18 20 18 18 20 19 19 19 18 18 17 17 16 14 13 13 14 14 14 14 13 13 14 14 14 14 13 13 12 11 9 8 9 9 8 9 9 8 7 7 8 7 6 6 6 8 9 10 10 10 6 3 6 6
6 6 5 4 4 10 15 18 19 18 16 16 19 22 24 26 24 23 24 24 25 26 23 16 11 9 10 18 24 15 8 20 24 18 18 19 19 19 19 18 18 18 17 17 16 15 14 15 14 13 13 13 13 13 13 13 13 13 13 13 12 10 9 10 9 8 9 9 9 9 8 9 10 9 9 10 10 10 10 9 11 9 6 4 4
5 5 5 4 5 9 13 17 17 16 16 17 20 23 23 23 22 25 29 31 32 32 29 23 18 11 5 11 20 14 11 22 26 22 19 19 19 19 19 18 18 18 18 18 17 16 15 15 14 14 13 12 12 12 11 12 11 11 12 12 12 11 10 10 9 9 9 9 9 9 9 11 11 11 11 11 10 10 10 9 10 10 8 5 2
5 5 6 5 6 8 10 10 12 15 17 18 20 22 24 23 23 26 30 31 30 29 27 24 24 20 12 12 20 20 19 23 26 25 22 20 20 21 19 19 18 18 18 18 18 17 17 16 15 15 14 13 13 12 11 11 11 10 11 11 11 9 9 10 8 8 8 7 8 9 9 9 9 10 10 9 9 8 9 9 8 8 9 6 4
4 4 4 2 3 7 10 10 10 14 18 21 22 24 26 27 26 25 29 33 33 33 33 30 30 29 23 21 23 26 27 27 28 28 26 22 22 22 22 20 19 19 19 18 18 18 18 18 17 16 15 14 14 13 11 11 10 10 10 10 10 8 8 8 7 6 6 5 6 7 8 8 8 7 6 6 7 8 7 8 7 7 7 7 5
5 5 4 3 3 4 9 12 12 14 18 21 24 27 27 26 25 26 30 35 37 39 41 39 35 32 30 30 29 29 31 30 31 32 30 25 23 23 24 22 21 20 19 19 18 17 17 18 18 17 16 15 14 13 11 10 9 9 8 9 9 8 7 7 7 5 5 4 4 6 6 7 7 6 5 5 6 7 7 8 8 7 7 8 8
5 5 5 5 7 6 7 9 12 14 17 21 23 25 24 22 23 28 32 34 35 38 42 40 37 36 36 36 32 30 31 30 31 33 33 29 25 25 25 24 22 22 20 20 19 17 16 16 17 18 17 16 15 13 12 11 10 9 8 8 8 8 7 6 6 6 4 4 3 4 4 4 5 5 5 5 4 5 6 7 7 7 7 8 9
5 5 5 4 4 5 7 8 10 12 14 18 20 21 22 22 23 27 30 31 32 37 40 38 37 39 40 38 32 31 32 30 29 31 33 32 28 26 27 26 25 24 22 20 19 18 17 16 16 17 17 16 15 14 13 12 12 11 10 10 9 8 8 7 7 6 5 4 3 3 2 2 2 2 2 4 4 3 4 5 6 6 6 7 9
4 4 2 1 1 7 11 11 8 7 8 11 14 16 19 22 23 25 27 27 29 33 35 35 37 40 40 37 33 31 29 24 24 29 32 30 27 27 28 29 29 27 24 23 21 19 18 17 16 16 16 15 14 14 14 13 12 11 11 10 10 9 9 8 7 7 6 6 6 4 3 3 2 2 1 1 2 2 2 3 4 4 5 7 8
4 5 3 3 7 11 12 11 10 7 4 6 9 11 15 18 20 22 24 24 25 27 29 31 35 38 37 35 29 27 25 22 22 27 30 28 25 26 27 28 29 29 27 24 23 21 20 19 17 16 15 15 14 14 14 14 13 12 11 11 11 10 10 9 8 7 7 8 7 7 6 5 4 4 4 3 2 2 1 1 2 3 4 6 8
5 5 5 5 7 8 9 10 10 9 6 4 5 8 11 14 16 18 19 20 22 24 26 28 33 35 33 27 22 22 25 26 26 26 27 25 23 22 22 23 23 25 26 25 23 22 21 21 20 17 16 15 14 14 14 14 14 13 13 12 12 12 11 11 10 8 8 9 9 9 8 8 7 6 6 5 4 4 3 2 2 3 3 5 7
4 4 5 6 6 7 8 9 10 10 9 7 6 5 6 9 12 15 16 16 18 21 24 27 28 28 24 18 17 20 24 27 29 28 25 23 22 18 16 17 17 16 17 19 18 16 17 20 21 19 17 15 14 14 14 14 14 14 14 14 14 14 13 13 14 12 11 11 11 11 10 10 11 9 8 8 7 6 5 4 3 4 4 5 7
4 5 5 6 6 7 8 10 10 10 10 9 8 8 7 6 7 10 13 15 16 18 22 22 22 21 17 13 13 17 20 25 27 25 21 19 21 19 15 16 18 16 13 12 14 15 16 20 23 22 20 17 15 16 16 15 15 15 16 16 17 16 16 17 17 16 15 14 13 12 13 13 13 12 11 11 10 9 7 6 5 5 6 7 8
6 6 6 6 6 7 10 12 12 11 11 11 10 10 9 8 8 8 10 12 13 15 17 17 17 16 14 12 14 16 17 21 21 20 18 16 16 16 14 13 16 16 12 10 14 17 18 20 22 23 22 20 19 19 18 18 18 17 17 18 18 19 19 19 20 19 19 19 17 15 16 16 15 15 14 13 12 11 9 8 7 6 7 7 8
9 8 8 8 7 7 10 13 14 13 13 12 11 9 8 9 9 10 11 10 10 11 14 14 13 12 11 13 16 17 17 18 17 16 17 16 13 11 11 11 12 14 14 15 20 22 21 24 26 25 25 23 21 20 18 17 17 17 17 18 19 19 20 21 22 22 23 23 21 20 19 19 18 17 16 16 14 13 11 9 8 7 7 7 8
10 10 9 9 9 10 13 16 17 16 14 14 13 11 8 7 7 8 9 10 11 13 14 14 15 14 14 15 15 17 20 20 18 16 15 16 17 16 18 20 21 23 24 24 27 27 26 28 30 28 27 24 20 17 15 14 15 15 15 16 18 19 19 20 22 23 24 24 24 24 23 22 20 19 18 17 16 14 12 10 8 8 8 7 7
11 11 10 11 11 13 16 18 20 20 19 18 16 14 12 12 10 7 5 5 6 8 10 14 17 17 18 20 19 20 21 21 22 23 21 21 22 22 23 23 23 23 22 21 25 29 30 31 30 27 26 23 18 16 15 13 13 12 11 13 15 17 18 19 21 22 23 24 25 26 26 24 22 20 20 18 17 15 12 9 9 9 9 8 7
10 10 10 11 10 11 14 17 20 23 24 24 23 21 19 16 13 11 9 6 3 3 6 10 11 12 17 22 24 23 21 21 24 24 23 23 22 22 24 24 22 21 20 21 27 31 30 28 28 26 23 19 17 14 11 9 8 8 10 11 12 14 15 17 19 21 22 23 23 25 27 25 23 21 21 19 16 13 10 9 9 9 9 9 8
8 8 9 9 9 11 14 18 20 22 23 25 26 26 25 21 16 12 10 10 8 5 2 5 8 10 14 19 22 23 22 23 23 22 22 23 23 25 25 23 20 20 22 24 26 27 25 25 27 23 17 13 10 8 6 6 8 10 12 13 14 14 15 15 16 18 20 21 22 23 24 23 22 21 20 19 17 12 10 10 10 10 9 8 8
9 8 7 8 11 14 17 19 20 21 23 25 26 27 26 25 22 17 15 14 12 9 7 3 7 12 15 16 18 20 20 20 21 21 22 23 24 25 25 22 21 21 23 24 24 24 25 24 21 15 10 7 5 4 5 7 10 13 14 14 13 14 15 15 15 14 16 17 19 21 20 20 21 20 19 18 15 13 11 11 11 10 9 8 8
9 9 9 11 14 16 18 20 20 21 23 24 25 25 25 25 26 23 22 20 17 13 10 7 3 5 10 13 16 19 18 18 18 19 19 20 20 20 19 19 18 18 20 22 22 21 21 18 13 10 7 5 4 4 6 8 11 13 14 12 10 10 12 13 13 12 11 12 14 17 18 17 18 18 17 14 12 10 10 12 11 11 10 9 9
8 10 12 15 17 17 18 19 18 19 21 21 22 23 22 23 25 25 24 24 22 19 15 11 7 4 5 9 11 13 14 15 16 17 17 17 16 16 15 15 14 14 14 14 14 13 11 10 8 7 5 4 4 6 7 10 12 13 13 11 9 9 10 10 10 9 8 8 10 14 15 14 15 16 14 12 9 9 10 13 13 11 11 11 11
11 13 14 18 19 18 19 21 20 19 19 20 20 21 20 20 22 23 23 22 21 21 21 18 13 8 3 7 10 11 12 13 13 13 13 14 13 12 12 12 11 11 11 9 8 7 5 4 4 4 4 4 6 6 7 8 10 10 11 10 9 8 8 8 6 5 5 5 6 9 11 12 13 13 12 11 11 11 12 13 12 11 11 10 9
14 16 17 18 19 18 18 19 19 18 19 20 20 19 18 18 18 19 20 20 19 20 22 20 18 15 8 1 6 7 6 6 6 8 9 9 9 9 8 8 8 8 8 7 5 4 3 3 4 4 5 6 6 6 6 6 7 7 8 8 7 6 5 4 2 1 1 2 4 6 8 9 10 10 10 9 9 10 10 11 10 10 9 8 7
14 15 16 16 16 16 17 17 16 16 18 19 19 18 18 17 17 16 15 16 17 19 21 18 16 18 14 7 4 6 7 6 4 5 7 8 8 7 5 5 6 5 5 5 4 3 3 4 6 7 7 8 7 7 6 4 4 4 5 5 4 3 2 1 2 3 5 5 5 6 6 6 7 7 7 7 6 6 7 7 7 8 7 7 8
15 16 16 16 16 17 16 15 14 14 15 16 17 18 19 19 19 17 14 12 12 15 18 17 16 17 14 8 4 4 8 10 8 8 9 9 8 6 5 4 4 4 3 3 3 2 2 2 5 7 9 9 8 7 5 4 3 3 3 3 3 3 2 3 4 4 5 5 4 4 4 4 5 5 4 4 3 3 4 4 5 5 5 6 8
17 18 18 18 17 17 16 14 13 14 15 16 15 16 19 20 20 20 18 14 12 12 13 14 16 17 13 7 5 4 4 7 8 10 11 10 9 8 7 7 6 5 4 3 3 2 1 2 4 6 8 8 7 6 5 4 3 2 3 3 3 4 4 4 4 5 5 4 5 4 4 4 3 3 2 1 1 1 2 3 4 5 6 7 8
18 19 20 19 19 19 18 16 15 15 15 15 14 15 17 18 19 19 18 18 17 15 14 14 15 15 13 10 8 6 2 3 4 6 7 7 8 9 9 9 9 8 6 5 4 3 2 2 3 5 7 7 7 6 5 4 3 3 3 3 3 3 4 4 5 5 5 4 5 5 5 5 3 2 1 0 1 3 4 5 5 5 6 7 8
17 18 18 18 18 19 19 19 19 18 17 15 13 14 16 17 17 17 16 17 18 18 17 15 15 15 15 15 14 10 5 4 4 4 4 4 5 6 7 7 7 7 6 5 4 4 4 5 6 6 7 8 8 7 6 5 4 4 4 3 3 3 4 4 4 4 4 5 6 6 5 4 2 0 2 3 5 6 6 6 5 5 6 7 8
19 20 20 19 18 18 19 21 21 21 20 18 15 15 16 17 18 17 16 16 16 17 18 18 17 17 17 18 19 17 15 14 12 10 8 7 6 5 5 5 5 5 6 6 7 7 8 8 8 8 9 9 9 8 7 7 6 5 4 4 3 4 4 4 3 3 5 6 6 5 3 1 2 3 4 5 6 6 5 4 4 4 5 6 7
20 22 22 22 21 21 21 22 21 20 19 19 17 16 18 19 19 18 19 18 17 16 16 17 19 19 20 20 19 20 23 24 23 21 16 12 11 10 8 7 6 5 6 7 8 9 10 9 9 9 10 11 11 10 10 8 7 6 5 4 4 4 3 3 3 4 5 5 4 3 2 2 3 3 3 4 4 4 4 3 2 3 5 6 8
19 21 22 23 23 23 22 22 22 21 18 17 17 18 19 20 19 19 20 20 20 19 17 16 16 17 20 21 19 19 21 22 23 25 23 19 17 16 13 10 8 7 6 7 9 10 10 10 11 11 11 12 12 12 11 9 8 7 6 6 5 4 3 3 3 4 5 4 3 1 0 1 2 3 4 5 5 5 5 4 4 5 7 9 11
19 20 22 23 23 23 22 22 24 23 20 18 19 20 21 22 22 21 21 21 21 21 20 18 16 14 16 18 20 21 23 23 25 26 26 23 20 18 15 13 11 9 7 7 8 9 10 10 11 12 12 12 12 12 12 11 10 9 8 7 6 5 4 3 3 3 3 3 3 3 4 5 5 6 6 5 5 5 5 6 7 8 10 11 13
21 21 21 22 22 22 23 24 25 25 23 22 24 24 24 24 24 23 22 23 23 22 21 21 20 17 14 13 14 17 19 21 23 24 23 22 20 18 17 15 12 10 10 10 10 10 10 11 12 12 12 12 13 14 14 13 12 10 9 8 7 6 5 4 3 3 4 5 6 7 7 6 5 4 5 6 6 6 7 8 9 10 11 13 14
23 23 23 22 23 24 25 26 27 26 25 25 27 28 27 26 25 23 21 22 24 24 22 22 22 21 18 14 10 9 10 12 17 20 20 19 18 18 17 15 13 13 13 12 11 10 10 11 12 12 12 13 14 15 14 13 11 10 9 9 8 7 5 4 3 3 6 8 9 8 6 4 4 6 7 7 8 8 9 10 12 13 14 15 16
24 25 25 25 25 25 26 27 28 27 26 26 28 30 28 26 23 20 19 20 22 22 21 22 21 20 21 18 12 9 7 8 12 16 17 17 16 16 16 15 14 14 12 11 9 8 7 8 10 12 13 13 12 11 12 12 11 10 9 8 7 6 4 3 4 6 8 8 8 7 6 6 6 7 8 8 9 10 12 13 15 16 16 16 17
24 24 25 25 25 26 26 27 28 26 26 26 27 27 26 25 22 20 19 19 20 20 21 23 22 21 20 19 16 14 12 10 10 13 15 15 14 13 13 14 14 13 11 10 9 8 7 7 9 10 12 13 10 9 11 13 12 11 9 7 6 5 4 5 7 8 9 8 7 7 7 7 6 7 7 8 9 11 13 15 16 16 17 17 19
Wind_Direction
234 210 181 174 176 179 180 178 178 176 174 171 167 165 162 161 161 159 160 163 163 158 153 150 148 148 143 137 134 135 138 129 105 97 116 134 146 168 180 187 202 211 211 206 205 206 202 200 198 197 205 207 199 195 197 200 202 201 202 206 207 201 196 200 208 207 196 180 178 215 227 236 249 271 293 307 330 287 260 250 234 225 230 239 246
232 220 199 182 178 176 175 174 172 172 172 170 166 164 164 165 164 162 161 164 165 159 157 161 162 158 150 142 138 137 138 135 128 121 120 129 135 144 147 150 161 169 176 178 176 189 213 217 210 209 216 223 215 210 213 214 215 216 215 217 215 202 193 195 194 184 188 191 157 152 260 257 258 261 273 297 326 333 313 289 260 235 232 238 254
208 215 211 194 186 174 168 169 169 170 172 170 165 164 164 163 162 162 162 164 162 160 167 171 166 164 159 149 144 138 133 131 130 128 123 121 124 129 127 128 131 135 148 157 153 165 195 204 200 203 217 230 228 220 216 213 213 213 215 218 209 192 193 201 199 196 200 193 148 85 286 273 281 279 274 292 351 5 358 340 328 280 248 250 276
201 209 210 197 191 178 170 170 169 169 170 168 164 164 163 161 162 163 163 164 163 166 176 176 167 165 159 152 147 138 133 131 129 128 129 126 126 131 133 137 140 138 141 144 149 159 167 172 179 191 203 226 231 225 214 200 193 192 194 203 200 193 197 199 205 211 203 186 160 129 118 84 49 317 309 328 22 21 19 14 2 348 302 276 287
192 198 200 196 195 189 180 174 171 171 170 168 165 165 165 164 165 167 166 166 168 175 181 176 169 162 153 146 142 136 135 137 136 135 139 139 137 137 139 150 160 162 159 155 163 165 154 151 161 177 185 219 241 249 233 205 200 200 195 203 208 211 212 196 197 214 212 204 167 117 95 50 227 278 319 0 36 35 36 33 21 9 358 339 327
199 198 196 195 196 190 182 177 175 174 173 171 170 171 171 168 169 171 169 168 173 181 183 176 172 164 156 152 148 142 140 142 143 141 144 146 146 144 141 148 156 158 160 166 176 172 159 153 155 166 155 113 78 25 228 203 210 212 209 213 214 224 232 207 196 216 229 227 114 98 106 112 174 202 109 338 19 48 52 45 33 24 22 21 16
217 215 205 196 188 179 181 186 183 180 177 175 174 175 175 172 173 175 172 171 177 184 184 177 173 168 166 165 161 157 151 147 146 142 141 143 145 148 144 141 143 144 147 156 168 168 160 158 163 182 171 123 101 98 101 117 145 180 201 209 208 215 226 209 195 197 211 224 84 86 94 94 103 124 122 109 345 33 36 44 40 32 33 24 17
207 210 209 200 185 182 187 190 190 189 184 179 178 180 181 179 178 179 174 173 178 183 185 181 176 173 171 170 166 163 157 150 151 147 143 143 145 149 148 143 141 140 141 145 152 155 152 153 157 169 164 134 112 107 102 106 118 138 172 189 196 206 214 207 199 188 175 157 117 107 95 88 77 76 99 106 125 287 351 22 19 12 20 25 18
206 206 200 188 196 196 191 187 192 197 191 185 183 183 184 183 182 182 179 178 182 186 186 184 182 178 175 171 162 158 154 149 151 151 149 148 145 143 141 139 139 141 143 140 139 139 135 136 136 130 127 117 108 106 104 104 104 104 121 149 167 176 175 185 196 182 156 146 138 125 111 102 87 79 85 91 101 103 330 328 352 360 13 30 36
209 205 149 130 212 210 192 186 190 197 197 193 189 187 188 186 184 183 181 180 183 188 187 184 184 182 179 173 162 154 152 151 152 152 153 154 150 144 138 133 134 135 136 134 131 129 125 124 125 122 119 116 113 111 111 110 105 101 105 114 117 117 116 125 140 138 135 137 135 130 117 107 96 81 75 73 77 81 66 311 348 357 0 27 47
194 168 117 138 206 214 191 184 184 191 199 198 196 194 191 188 186 184 184 185 186 188 187 184 185 185 183 176 165 159 157 156 157 156 157 160 158 154 147 139 137 134 133 132 129 127 126 127 130 130 127 125 122 119 117 116 115 115 116 114 108 104 105 113 120 121 122 118 113 115 108 95 87 79 70 59 54 55 50 351 350 352 333 11 48
167 145 134 145 183 200 189 180 182 189 196 199 201 201 197 193 190 183 172 166 172 177 180 180 182 183 184 179 170 165 164 164 163 162 163 165 164 163 159 151 146 142 138 135 132 130 129 131 135 137 136 135 132 130 127 123 120 118 117 113 106 102 104 108 112 114 115 112 105 99 91 83 77 76 71 58 54 51 48 32 357 353 338 352 32
154 149 151 156 181 192 187 185 187 191 197 201 202 201 199 192 159 111 95 107 142 164 176 178 178 180 182 179 173 168 170 171 169 168 169 170 170 171 170 164 156 153 151 145 141 139 135 131 131 132 132 131 131 132 132 131 132 131 126 118 109 106 108 111 111 110 108 104 99 94 86 82 77 73 68 60 58 53 49 41 9 359 336 338 13
143 146 154 172 199 196 193 196 196 198 201 200 197 194 188 129 37 75 139 175 180 181 187 182 178 179 178 176 175 171 174 180 179 176 175 176 177 177 177 174 167 163 160 154 149 145 138 130 125 123 122 121 121 122 122 122 127 131 128 119 111 109 111 112 111 109 106 99 97 99 92 87 83 75 67 61 60 58 57 47 22 16 6 358 19
111 115 125 151 190 193 198 206 205 205 202 192 192 199 198 201 210 200 184 177 172 177 185 174 162 169 173 175 173 167 180 196 191 187 185 184 185 185 183 180 174 168 164 159 155 150 143 134 129 125 123 121 120 121 120 120 121 121 119 113 109 109 109 109 110 109 107 100 94 92 92 90 82 76 76 73 68 62 61 55 42 46 32 5 12
111 108 102 106 160 186 199 206 208 205 196 191 197 203 201 198 201 198 184 174 175 178 177 165 148 153 172 181 174 163 200 207 197 197 195 192 193 192 189 184 178 172 168 164 161 157 151 144 140 136 132 129 126 125 124 125 125 121 117 113 109 110 109 107 109 110 110 107 95 83 87 91 83 82 85 80 75 66 61 57 50 62 70 22 0
119 123 125 128 147 169 189 201 205 199 188 189 197 201 197 189 181 178 175 176 179 178 174 172 176 186 207 190 180 180 211 207 201 202 201 199 202 200 196 191 184 177 173 169 166 163 159 156 154 149 146 143 137 132 128 129 129 123 118 116 112 110 107 105 105 105 109 110 97 84 85 90 87 86 87 82 78 69 63 62 53 58 70 72 57
137 134 130 148 159 149 153 173 191 194 187 185 190 195 193 189 182 173 168 167 166 167 170 172 181 197 210 195 192 203 214 212 209 206 203 203 206 207 204 200 193 186 181 175 170 168 166 166 166 161 158 157 154 147 140 140 139 131 125 123 119 116 112 110 104 99 103 107 100 91 85 90 93 93 91 83 73 61 54 54 51 47 49 64 90
82 73 77 107 145 136 135 139 157 177 184 184 185 189 191 194 192 177 166 165 165 172 179 177 180 191 195 190 200 213 215 216 214 208 205 206 209 211 209 205 200 194 190 184 177 173 171 172 172 170 167 165 163 159 154 153 151 144 140 137 132 128 123 120 117 105 99 99 101 98 87 84 91 89 87 77 55 45 41 39 41 36 31 36 48
42 30 20 9 33 100 132 137 143 159 174 180 184 186 188 188 182 168 164 170 175 181 183 182 183 188 190 189 200 216 219 219 216 209 207 208 210 214 213 209 205 200 197 193 188 184 178 176 176 176 175 173 171 170 169 167 164 159 154 151 147 143 138 133 132 125 113 105 105 107 95 79 76 70 64 59 41 38 42 41 39 36 30 25 24
45 32 16 1 9 42 101 127 139 151 165 175 183 186 181 177 174 172 171 174 179 182 183 184 185 187 190 192 199 214 222 225 221 212 210 211 211 215 216 214 208 205 203 199 197 195 189 183 181 181 183 183 182 181 181 183 181 176 173 171 167 162 159 157 151 147 142 136 128 123 114 88 77 68 50 43 37 38 42 41 39 33 29 25 18
54 43 28 347 351 54 96 116 133 147 161 171 180 183 178 177 180 182 183 183 184 185 186 188 187 188 193 197 202 214 222 228 228 218 212 212 211 213 217 218 213 209 207 205 202 201 199 194 189 186 188 191 192 190 189 193 194 191 190 191 189 185 182 183 181 176 172 175 182 167 152 139 111 90 49 31 27 28 30 32 37 31 22 21 13
89 89 101 220 74 79 90 98 112 138 166 178 185 187 183 183 185 187 190 189 187 187 189 191 192 193 198 203 208 214 217 227 232 221 213 212 212 212 214 218 217 212 209 208 207 206 204 202 197 194 194 194 197 198 198 203 207 205 205 207 209 207 202 201 202 202 197 200 208 208 200 199 192 190 211 331 0 356 0 16 26 23 13 13 7
131 134 139 105 77 69 72 79 87 106 149 195 206 205 197 191 191 193 196 195 192 192 194 197 198 199 203 208 212 212 212 223 231 222 213 211 214 214 211 212 213 211 210 209 210 212 213 210 204 199 198 199 200 203 207 211 213 215 216 219 222 223 224 223 218 216 218 220 226 229 228 227 222 214 217 226 244 264 280 315 358 359 355 354 355
133 127 108 84 76 71 72 76 81 91 105 137 187 214 217 210 206 205 206 205 202 201 202 204 205 206 209 213 214 212 214 221 225 218 210 209 216 219 212 207 207 207 209 209 209 217 222 219 214 206 201 203 204 207 214 217 218 221 224 228 230 231 236 240 237 232 229 231 237 240 241 241 239 233 225 228 236 242 251 254 278 312 328 337 344
100 100 91 82 75 74 77 80 82 84 87 96 117 156 192 208 213 215 215 213 210 210 209 208 208 211 217 223 222 220 219 217 212 207 200 199 206 212 207 203 201 197 201 205 210 226 237 231 228 223 214 213 216 218 224 227 226 229 233 236 238 238 241 245 246 243 238 238 242 245 245 241 241 244 237 233 238 240 243 255 271 292 310 325 336
43 50 63 66 61 54 53 58 64 71 78 86 92 103 126 153 179 199 209 209 209 211 211 210 213 217 223 226 215 207 204 199 195 189 183 186 198 204 204 205 204 198 202 215 222 237 247 242 242 242 234 231 235 234 237 239 238 241 244 245 244 245 248 249 250 251 247 244 244 246 247 242 240 244 241 235 236 239 244 255 271 289 303 314 328
29 30 36 44 45 36 34 39 44 55 68 76 80 85 96 108 121 146 171 186 198 204 205 207 208 206 208 203 189 184 187 189 186 177 168 169 180 187 185 187 191 195 210 247 251 245 242 239 245 251 248 248 250 247 248 250 249 250 253 256 255 253 254 254 254 256 256 252 248 248 247 245 243 243 242 238 236 238 242 248 259 276 290 303 320
27 24 23 29 30 24 28 33 35 43 52 57 62 68 80 91 101 113 122 133 158 181 192 195 188 177 171 172 174 175 177 181 181 171 162 163 166 175 191 201 206 211 225 246 248 240 233 233 239 245 248 252 254 251 251 253 255 259 262 265 265 260 259 258 256 257 258 255 252 251 250 248 245 242 241 240 237 239 243 244 250 260 270 289 310
30 30 31 33 30 26 26 25 24 26 34 43 48 50 56 65 81 105 114 115 126 140 150 154 150 144 145 151 161 168 166 167 171 168 173 192 204 217 230 230 225 223 224 230 234 230 226 231 240 245 245 248 250 249 253 260 268 272 271 269 269 267 267 266 264 262 260 257 255 254 254 250 245 240 237 235 232 233 237 243 252 257 262 276 297
32 33 34 34 33 30 28 25 21 20 23 28 32 37 44 46 48 63 94 130 152 159 167 168 164 163 166 169 175 178 176 178 182 185 196 208 211 216 221 217 213 212 215 224 230 228 226 231 240 245 246 249 252 257 268 281 289 292 290 284 281 279 278 277 275 271 267 264 260 256 253 249 242 236 231 228 226 226 230 239 251 257 263 277 295
33 34 32 32 30 26 26 27 27 27 27 25 25 28 29 29 33 45 57 70 111 183 215 206 187 177 179 180 181 184 189 188 186 194 208 210 208 211 209 203 201 206 213 223 228 228 228 233 239 244 249 254 260 269 281 300 314 320 317 310 302 295 289 284 281 278 275 271 266 259 253 246 238 231 226 219 213 215 229 242 247 254 264 280 296
36 33 30 30 27 25 28 29 28 28 25 22 25 27 25 22 22 27 35 39 45 60 132 197 185 178 181 181 181 185 189 190 194 207 214 206 204 206 202 198 203 212 215 218 223 226 229 234 239 242 246 250 257 271 294 318 328 332 329 320 312 304 296 289 285 281 278 273 267 261 252 239 228 222 216 209 204 212 234 241 242 251 263 279 292
30 27 24 23 25 28 29 29 28 27 24 22 23 24 26 28 28 25 23 21 20 30 46 106 177 191 197 195 194 195 195 197 202 206 203 197 200 204 202 205 215 221 218 214 217 223 223 225 228 224 220 225 234 264 301 322 329 332 333 327 316 306 299 294 291 286 279 272 264 258 246 228 216 210 207 207 211 221 234 237 241 252 262 272 277
21 16 10 8 14 20 23 25 26 22 21 22 19 16 19 26 27 26 26 24 22 21 24 37 85 174 194 199 202 201 198 197 193 188 187 190 194 195 195 198 202 204 205 204 204 206 206 205 203 198 204 224 250 291 314 326 331 336 342 340 332 323 314 308 306 302 292 276 259 250 240 224 212 207 207 211 216 221 235 244 248 251 255 259 263
19 13 7 4 7 10 12 15 16 17 18 17 12 7 6 11 18 20 18 20 25 25 20 18 26 58 134 154 165 168 162 159 159 158 159 161 162 162 161 161 161 159 163 168 169 173 178 180 185 199 221 251 284 303 315 321 327 339 351 356 352 342 332 323 319 315 305 283 257 245 238 225 215 214 214 215 215 220 238 248 249 248 251 256 260
17 16 16 16 15 15 13 8 3 6 14 15 11 5 356 357 9 15 10 11 18 20 16 14 16 21 76 128 133 135 135 135 138 140 141 142 143 143 141 139 139 136 136 139 142 148 164 182 200 233 261 274 284 293 301 310 321 335 349 357 359 352 341 334 329 320 305 279 246 234 228 219 214 216 217 219 222 225 232 241 246 249 251 253 255
14 14 15 17 18 19 20 15 7 2 2 2 4 2 352 351 2 9 6 5 5 1 359 2 9 9 354 237 164 154 150 147 144 142 145 147 146 143 144 145 145 137 129 130 136 141 166 211 233 249 259 263 267 272 278 293 313 329 340 350 355 350 344 340 334 315 202 183 175 183 198 205 207 210 213 216 219 222 228 237 245 247 246 247 249
3 6 5 6 8 7 10 16 15 5 357 352 350 349 345 346 353 357 360 360 353 349 349 349 355 359 350 321 242 211 203 200 195 175 167 166 162 158 160 159 153 143 126 120 121 120 144 200 225 232 234 237 241 247 254 269 300 321 332 341 339 331 324 265 197 168 159 154 148 149 164 185 194 197 202 208 211 221 234 240 242 245 249 256 264
348 353 353 352 354 354 357 3 4 359 354 352 349 342 334 332 334 334 337 343 337 336 341 339 338 345 346 336 318 255 217 210 213 207 191 182 180 183 194 195 181 169 152 136 131 120 124 188 221 225 224 223 226 232 236 240 258 292 311 315 307 292 268 234 213 199 188 181 173 162 158 168 185 191 198 210 220 236 247 249 255 267 276 281 285
339 343 346 345 344 344 343 343 343 343 343 346 347 341 333 330 327 319 313 313 312 315 321 324 327 335 333 322 332 329 247 216 209 204 199 196 195 198 205 209 205 198 188 173 158 142 148 204 223 227 225 220 219 224 227 227 231 249 275 288 290 283 268 249 238 233 225 210 193 176 157 151 160 164 164 180 221 264 281 294 302 304 302 298 298
336 339 342 340 336 335 333 329 330 331 331 333 333 329 326 328 326 319 309 303 299 298 302 304 308 316 314 305 314 328 295 227 211 199 196 197 200 206 210 207 202 200 192 177 166 170 198 225 239 242 236 227 220 217 217 219 225 238 260 274 278 270 258 253 251 239 221 197 174 159 149 144 142 136 120 65 339 331 329 331 329 320 309 305 305
332 334 336 333 327 325 324 321 320 319 320 321 318 311 310 311 312 316 316 307 295 287 286 288 291 294 294 291 296 300 281 238 222 207 197 188 181 188 197 198 194 192 189 183 187 205 219 226 232 235 231 224 217 212 212 217 227 238 248 257 261 254 244 246 247 225 194 170 155 151 150 152 158 237 321 325 328 332 332 328 322 315 312 312 314
329 328 329 328 321 316 314 313 313 313 313 312 307 299 296 294 294 301 310 311 302 291 283 278 275 276 279 278 278 278 274 269 268 263 248 230 215 198 188 190 192 191 192 194 199 206 213 218 220 219 215 210 208 209 212 218 226 235 243 248 247 241 238 236 219 180 163 161 161 162 171 206 284 309 319 323 327 331 331 324 316 317 320 322 322
324 323 324 323 318 314 312 309 308 309 309 308 306 300 292 288 288 292 297 300 304 304 296 284 273 268 266 265 263 264 267 268 270 268 257 242 234 228 216 207 203 197 198 202 204 209 214 218 220 219 212 203 201 205 210 214 221 227 230 234 233 229 228 222 180 156 157 167 177 189 220 284 317 335 349 0 11 23 26 24 10 347 333 329 327
314 315 316 315 313 312 309 306 306 307 305 303 303 300 294 291 291 292 292 292 294 297 297 296 287 273 263 259 256 256 256 255 256 256 251 242 234 228 220 216 211 203 202 207 212 216 218 220 220 217 207 199 197 203 208 210 214 218 218 217 214 206 198 183 155 149 155 165 172 182 210 46 61 62 58 58 57 53 46 32 7 348 339 335 335
306 308 309 309 307 305 303 301 300 301 302 302 299 296 294 292 292 291 291 292 291 288 286 287 289 284 272 261 256 254 252 250 249 246 238 231 225 220 215 211 206 201 203 209 218 225 228 228 222 211 202 198 200 205 210 209 207 206 204 202 197 189 181 173 156 143 141 139 133 123 109 101 97 85 68 55 44 29 14 1 352 347 345 343 341
305 305 304 303 301 298 297 296 294 294 297 297 294 292 291 292 293 291 290 290 288 284 280 278 279 281 281 272 260 253 251 254 252 238 221 212 211 212 213 213 213 220 229 232 232 236 241 242 231 214 203 201 205 211 213 212 208 206 202 198 191 184 176 172 166 145 129 126 128 127 122 113 97 66 39 24 17 12 6 360 354 350 347 343 340
303 303 301 298 295 292 291 291 291 293 295 292 289 288 287 288 291 291 287 285 283 279 275 272 271 270 270 272 271 256 245 251 250 234 218 210 209 210 214 220 226 235 239 239 239 241 245 246 237 225 216 215 219 223 220 212 210 211 209 202 192 183 177 172 158 140 135 135 134 127 114 91 52 30 23 20 17 11 3 358 354 350 347 345 341
302 302 300 295 292 290 289 288 289 291 292 289 287 287 286 286 288 289 286 282 278 275 273 270 269 269 265 261 259 257 256 267 260 239 223 214 210 208 211 215 219 224 227 227 228 229 235 237 232 230 231 234 239 238 221 206 202 199 196 193 186 179 173 155 141 139 139 137 128 108 81 60 44 36 32 28 19 8 359 355 353 352 351 350 346
301 300 298 295 292 290 288 287 288 289 289 287 286 285 285 285 285 286 284 280 278 278 277 273 269 270 269 264 259 257 258 265 263 243 225 216 211 210 210 212 213 213 213 214 214 210 209 216 223 230 233 233 233 226 209 200 192 185 183 183 176 169 157 141 143 146 137 121 104 88 75 62 50 42 36 26 14 5 1 358 356 357 358 356 351